Regional Weather Roundup
Issued by NWS Grand Forks, ND

Home | Current Version | Previous Version | Text Only | Print | Product List | Glossary On
Versions: 1 2 3 4 5 6 7 8 9 10 11 12 13 14 15 16 17 18 19 20 21 22 23 24 25 26 27 28 29 30 31 32 33 34 35 36 37 38 39 40 41 42 43 44 45 46 47 48 49 50
000
ASUS43 KFGF 020831
RWRFGF
PRAIRIE TO PINES  WEATHER ROUNDUP
NATIONAL WEATHER SERVICE EASTERN NORTH DAKOTA/GRAND FORKS ND
300 AM CDT THU APR 02 2015

 **SATELLITE DATA USED TO AUGMENT SKY COVER AT AUTOMATED STATIONS**
 *****  WEATHER ACROSS EASTERN NORTH DAKOTA  *****

CITY           SKY/WX    TMP DP  RH WIND       PRES   REMARKS
GRAND FORKS    CLEAR     37  28  70 SW8       29.61R
GRAND FRKS AFB CLEAR     37  27  69 W9        29.61R
GRAND FRKS NWS   N/A     36 N/A N/A SW9         N/A
DEVILS LAKE    CLEAR     34  27  75 SW9       29.59R
FARGO          MOCLDY    40  29  64 SW12      29.67F
WAHPETON ARPT  PTSUNNY   36  28  75 W10       29.70S
$$

 ***** WEATHER ACROSS CENTRAL AND WESTERN NORTH DAKOTA  *****

CITY           SKY/WX    TMP DP  RH WIND       PRES   REMARKS
BISMARCK       CLEAR     36  22  56 W6        29.70S
MINOT          CLEAR     38  23  55 SW15      29.57S
JAMESTOWN      PTCLDY    38  25  59 W9        29.67S
MINOT AFB      PTCLDY    38  27  64 W17       29.55F
GARRISON         N/A     35  25  66 W14       29.63S
WILLISTON      CLEAR     38  23  55 W17G28    29.64S
DICKINSON      CLEAR     35  17  47 W16       29.71R
HETTINGER      CLEAR     28  17  63 W7        29.77S WCI  21
$$

 *****  OTHER AIRPORT OBSERVATIONS IN OUR AREA  *****

CITY           SKY/WX    TMP DP  RH WIND       PRES   REMARKS
WALHALLA         N/A     39  28  65 SW10      29.54S
GRAFTON AIRPOR NOT AVBL
VALLEY CITY AR FAIR      36  27  69 W13       29.67F
CANDO          FAIR      32  27  80 SW10      29.57R WCI  24
CAVALIER APRT  FAIR      36  28  75 SW7       29.56R
GWINNER        SUNNY     37  28  70 SW10        N/A
ROLLA          FAIR      32  27  80 SW12      29.53S WCI  23
 ***** THE ABOVE OBSERVATIONS ARE NON NWS ARE NOT QUALITY
       CONTROLLED AND MAY MIS-REPORT RAIN FOR SNOW...
$$

  *****  WEATHER ACROSS NORTHERN MINNESOTA  *****

CITY           SKY/WX    TMP DP  RH WIND       PRES   REMARKS
FLAG ISLAND    CLEAR     37  34  87 SW13      29.51R
WARROAD        CLEAR     37  36  93 SW9       29.55F
ROSEAU         CLEAR     37  32  81 SW9       29.56S
HALLOCK        CLEAR     36  30  80 SW10      29.56R
THF RVR FALLS  PTCLDY    37  30  75 SW8       29.61F
BAUDETTE       CLEAR     40  34  79 W10       29.54R
WASKISH        CLEAR     37  36  93 SW12G17   29.57F
CROOKSTON      PTCLDY    34  28  80 SW10      29.63F
STEPHEN NDAWN    N/A     37  30  75 SW7         N/A
GREENBUSH NDAW   N/A     36  32  87 SW8         N/A
$$
  *****  WEATHER ACROSS CENTRAL AND WEST MINNESOTA  *****

CITY           SKY/WX    TMP DP  RH WIND       PRES   REMARKS
FOSSTON        PTCLDY    32  28  86 SW8       29.63F WCI  25
BEMIDJI        PTCLDY    38  32  79 W9        29.60F
PARK RAPIDS    MOCLDY    39  33  79 W9        29.63F
ELBOW LAKE     FAIR      38  31  76 W5        29.70S
WADENA         MOCLDY    37  30  75 SW5       29.66S
DETROIT LAKES  MOCLDY    41  32  70 W6        29.66F
MOORHEAD       MOCLDY    37  32  81 W9        29.68S
FERGUS FALLS   MOCLDY    39  28  65 CALM      29.71S
MORRIS MN      CLOUDY    39  30  70 W8        29.71S
STAPLES        CLOUDY    37  32  81 W9        29.67R
$$
  *****  WEATHER ELSEWHERE ACROSS MINNESOTA  *****

CITY           SKY/WX    TMP DP  RH WIND       PRES   REMARKS
DULUTH         CLOUDY    49  40  71 NW17G33   29.54S
INTRNTL FALLS  CLEAR     42  35  76 W13       29.51R
ELY            CLOUDY    46  39  76 W10G17    29.51R
CLOQUET        CLOUDY    48  39  71 W13G21    29.57S
WHEATON        MOCLDY    39  28  65 W7        29.75R
BRAINERD       MOCLDY    45  34  65 W9        29.65S
HIBBING        PTCLDY    46  34  62 W8        29.56R
ALEXANDRIA     CLOUDY    41  32  70 W7        29.70S
SAINT CLOUD    CLOUDY    47  34  60 W10       29.68R
MINNEAPOLIS    CLOUDY    53  35  50 W17       29.67R
$$

  *****  WEATHER ACROSS SOUTH DAKOTA  *****

CITY           SKY/WX    TMP DP  RH WIND       PRES   REMARKS
SIOUX FALLS    CLOUDY    47  30  51 NW3       29.80R
BROOKINGS      CLOUDY    43  30  61 SW6       29.80R
WATERTOWN      CLOUDY    42  31  64 W8        29.77R
HURON          CLOUDY    37  26  64 W6        29.82R
SISSETON         N/A     42  28  57 W8        29.72S
ABERDEEN       MOCLDY    33  24  69 W7        29.77S
MITCHELL       MOCLDY    45  27  49 CALM      29.83R
PIERRE         CLOUDY    39  19  44 SW6       29.82R
MOBRIDGE       PTCLDY    29  21  72 CALM      29.75R
RAPID CITY     CLEAR     36  12  37 W8        29.87R
$$

  *****  SOME WEATHER IN NEARBY STATES *****

CITY           SKY/WX    TMP DP  RH WIND       PRES   REMARKS
GLASGOW MT     PTCLDY    35  23  61 W22G36    29.74R WCI  23
GREAT FALLS MT CLOUDY    32  26  78 NW15      30.02R WCI  22
CHEYENNE WY    MOCLDY    30  22  72 W8        29.94R WCI  22
SCOTTSBLUFF NE PTCLDY    31  23  72 NW9       29.94R WCI  23
OMAHA NE       LGT RAIN  55  53  93 N10       29.72F
DES MOINES IA  LGT RAIN  59  55  87 N16G23    29.63F
DAVENPORT IA   MOCLDY    60  44  55 S20       29.67F
CHICAGO IL     MOCLDY    57  34  41 S15       29.77F
EAU CLAIRE WI  CLOUDY    55  53  93 W12       29.59F
LA CROSSE WI   CLOUDY    62  48  60 SE7       29.61F
$$

  *****  SOME NATIONAL WEATHER *****

CITY           SKY/WX    TMP DP  RH WIND       PRES   REMARKS
LA GUARDIA NY  CLEAR     39  17  41 CALM      30.21F
RALEIGH NC     PTCLDY    46  35  65 S6        30.26F
ATLANTA GA     MOCLDY    61  51  70 SE12      30.11S
NEW ORLEANS LA CLOUDY    70  67  90 S3        30.04F
OKLAHOMA CITY  PTCLDY    69  60  73 S18G26    29.70F
ALBUQUERQUE NM CLEAR     53  20  27 S7        29.96S
SALT LAKE CITY CLOUDY    41  20  43 N10       29.95F
LOS ANGELES CA CLEAR     58  48  69 W3        29.96S
BOISE ID       CLEAR     35  24  64 NW7       30.13R
SEATTLE WA     MOCLDY    42  41  96 S5        30.34S
$$

*** WEATHER ACROSS MANITOBA...SASKATCHEWAN AND ONTARIO ***
                ***ONTARIO***

CITY           SKY/WX    TMP DP  RH WIND       PRES   REMARKS
GERALDTON      MOCLDY    36  34  93 S7        29.38F
THUNDER BAY    MOCLDY    30  30 100 W5        29.41R
SIOUX LOOKOUT  MOCLDY    32  30  93 SW6       29.35R
TORONTO        CLOUDY    37  23  56 SE3       30.02F
BIG TROUT LK   FRZ RAIN  32  32 100 E7        29.40F FOG
PICKLE LAKE    NOT AVBL
DRYDEN         CLOUDY    41  36  81 W17G24    29.39R
KENORA         PTCLDY    39  34  81 W10       29.47R
$$
                *** MANITOBA***

CITY           SKY/WX    TMP DP  RH WIND       PRES   REMARKS
BRANDON        CLEAR     36  30  80 SW12      29.47F
DAUPHIN        CLEAR     36  30  80 NW7       29.42S
ISLAND LAKE    LGT SNOW  27  25  93 N16G28    29.36  WCI  14
PILOT MOUND      N/A     30  28  93 SW7         N/A  WCI  23
THE PAS        LGT SNOW  14  12  92 N17G30    29.65R VSB 3/4 WCI  -3
THOMPSON       LGT SNOW   3  -2  78 N18G25    29.77R DRFTSNOWWCI -17
WINNIPEG       CLEAR     36  30  80 SW10      29.48R
LYNN LAKE      CLEAR     -2  -9  71 N10       29.94R WCI -19
CHURCHILL      CRYSTALS  -9 -13  84 N10       30.03S WCI -28
GILLAM         LGT SNOW   0  -6  78 NE22G32   29.79S VSB 1   WCI -23
$$
                ***SASKATCHEWAN***

CITY           SKY/WX    TMP DP  RH WIND       PRES   REMARKS
ESTEVAN        FLURRIES  36  27  69 W20G26    29.52F
KINDERSLEY     FLURRIES  28  27  93 N30G45    29.81R WCI  13
LLOYDMINSTER   CLOUDY    25  21  86 N18       29.92R WCI  11
PRINCE ALBERT  LGT SNOW  19  16  86 N17G32    29.75R WCI   4
REGINA         FLURRIES  34  34 100 W15G23    29.46R WCI  24
YORKTON        CLOUDY    36  28  75 SW6       29.40F
N. BATTLEFORD  FLURRIES  28  25  86 N21G32    29.85R WCI  15
LA RONGE       MOCLDY    12   7  79 N10       29.91R WCI  -1
SASKATOON      LGT SNOW  23  19  86 N26G36    29.73R DRFTSNOWWCI   6
SWIFT CURRENT  LGT SNOW  25  23  93 NW33G40   29.69R WCI   7
$$
NOTE: THESE ARE AUTOMATED STATIONS WITH LIMITED QUALITY CONTROL
      "FAIR" INDICATES FEW OR NO CLOUDS BELOW 12,000 FEET WITH NO
      SIGNIFICANT WEATHER AND/OR OBSTRUCTIONS TO VISIBILITY.
      SKY/WX - SKY CONDITION AND SIGNIFICANT WEATHER.
      TMP - AIR TEMPERATURE.    DP   - DEWPOINT TEMPERATURE.
      RH  - RELATIVE HUMIDITY.  PRES - PRESSURE.
      HX  - HEAT INDEX.         WCI  - WIND CHILL INDEX.
$


USA.gov is the U.S. government's official web portal to all federal, state and local government web resources and services.